Home > Weather > Minot > Past weeks

Flag for USA Past Weather in Minot, North Dakota, USA — Yesterday and Last 2 Weeks

Now
56 °F

Clear.


Feels Like: 54 °F
Forecast: 50 / 78 °F
Wind: 7 mph from East

Location: Minot International Airport

Current Time: Jun 30, 2016 at 11:28:51 PM

Latest Report: Jun 30, 2016 at 10:54 PM


Visibility: 10 mi

Pressure: 30.20 "Hg

Humidity: 75%

Dew Point: 48 °F

Location of MinotLocation

Past Weather in Minot — Graph

°F

Minot Temperature Yesterday

Maximum temperature yesterday: 87 °F (at 2:54 PM)
Minimum temperature yesterday: 60 °F (at 5:54 AM)
Average temperature yesterday: 73 °F

High & Low Weather Summary for the Past Weeks

 TemperatureHumidityPressure
High90 °F (Jun 16, 5:54 PM)93% (Jun 19, 4:54 AM)30.31 "Hg (Jun 19, 4:54 AM)
Low53 °F (Jun 28, 3:54 AM)21% (Jun 17, 4:54 PM)29.49 "Hg (Jun 24, 10:54 PM)
Average70 °F60%29.98 "Hg
* Reported Jun 15 9:54 PM — Jun 30 9:54 PM, Minot, Weather by CustomWeather, © 2016

Note: Actual official high and low records may vary slightly from our data, if they occured in-between our weather recording intervals... More about our weather records

Advertising

Minot Weather History for the Previous 24 Hours

Scroll right to see more
 ConditionsComfort  
Time TempWeatherWind HumidityBarometerVisibility
9:54 PM
Thu, Jun 30
58 °FSunny.7 mph72%30.19 "Hg10 mi
8:54 PM66 °FSunny.7 mph52%30.18 "Hg10 mi
7:54 PM70 °FSunny.8 mph42%30.19 "Hg10 mi
6:54 PM71 °FSunny.7 mph41%30.19 "Hg10 mi
5:54 PM72 °FSunny.10 mph41%30.20 "Hg10 mi
4:54 PM71 °FSunny.12 mph39%30.22 "Hg10 mi
3:54 PM72 °FSunny.13 mph38%30.22 "Hg10 mi
2:54 PM71 °FSunny.8 mph41%30.23 "Hg10 mi
1:54 PM69 °FSunny.9 mph42%30.24 "Hg10 mi
12:54 PM70 °FSunny.9 mph39%30.24 "Hg10 mi
11:54 AM68 °FSunny.13 mph44%30.24 "Hg10 mi
10:54 AM65 °FSunny.13 mph49%30.24 "Hg10 mi
9:54 AM63 °FScattered clouds.13 mph50%30.24 "Hg10 mi
8:54 AM59 °FScattered clouds.10 mph62%30.24 "Hg10 mi
7:54 AM57 °FPartly sunny.10 mph74%30.22 "Hg10 mi
6:54 AM58 °FBroken clouds.8 mph87%30.19 "Hg10 mi
5:54 AM58 °FPassing clouds.7 mph90%30.16 "Hg10 mi
4:54 AM59 °FOvercast.7 mph87%30.15 "Hg10 mi
3:54 AM57 °FClear.6 mph90%30.13 "Hg10 mi
2:54 AM57 °FClear.7 mph90%30.12 "Hg10 mi
1:54 AM59 °FPassing clouds.6 mph90%30.11 "Hg10 mi
12:54 AM61 °FPassing clouds.7 mph87%30.08 "Hg10 mi
11:54 PM
Wed, Jun 29
63 °FClear.No wind84%30.07 "Hg10 mi
Weather by CustomWeather, © 2016

See weather overviewHow to use our weather pages